Location: Unspecified
(0.0000°N, 0.0000°E)
Time: 18:30:34
(UTC+00:00)

STARLINK-34048 - Pass Details

Date: 22 June 2025
Orbit: 482 x 484 km, 43.0° (Epoch: 20 July)

Event Time Altitude Azimuth Distance (km) Brightness Sun altitude
Rises 19:09:05 0° 223° (SW) 2,527 7.3 -15.3°
Reaches altitude 10° 19:11:16 10° 222° (SW) 1,647 6.3 -15.8°
Maximum altitude 19:15:02 83° 134° (SE) 484 3.2 -16.7°
Enters shadow 19:18:20 13° 47° (NE) 1,470 5.6 -17.4°
